,,PressureMeas_1m,,PRMeasQMR101_1,,RHStat155_1m_1,,SRMeasQMS101R_1m,,TAStat155_1m_1,,GenWind_1,,GenWind_1,
2019-02-14, 07:00:06,VALID,919.278,VALID,0.0,VALID,88.398,VALID,29.454,VALID,20.545,VALID,84.0,VALID,2.469,
2019-02-14, 07:01:06,VALID,919.322,VALID,0.0,VALID,88.32,VALID,30.683,VALID,20.565,VALID,82.0,VALID,2.607,
2019-02-14, 07:02:06,VALID,919.326,VALID,0.0,VALID,88.017,VALID,33.281,VALID,20.64,VALID,78.0,VALID,2.719,
2019-02-14, 07:03:06,VALID,919.339,VALID,0.0,VALID,87.64,VALID,40.843,VALID,20.715,VALID,81.0,VALID,2.474,
2019-02-14, 07:04:06,VALID,919.327,VALID,0.0,VALID,87.622,VALID,43.473,VALID,20.737,VALID,81.0,VALID,2.481,
2019-02-14, 07:05:06,VALID,919.316,VALID,0.0,VALID,87.462,VALID,39.264,VALID,20.769,VALID,82.0,VALID,2.804,
2019-02-14, 07:06:06,VALID,919.301,VALID,0.0,VALID,87.618,VALID,38.909,VALID,20.761,VALID,87.0,VALID,2.648,
2019-02-14, 07:07:06,VALID,919.285,VALID,0.0,VALID,87.672,VALID,39.679,VALID,20.743,VALID,87.0,VALID,3.098,
2019-02-14, 07:08:06,VALID,919.294,VALID,0.0,VALID,87.698,VALID,41.109,VALID,20.753,VALID,85.0,VALID,2.81,
2019-02-14, 07:09:06,VALID,919.307,VALID,0.0,VALID,87.722,VALID,44.143,VALID,20.759,VALID,82.0,VALID,2.679,
2019-02-14, 07:10:06,VALID,919.332,VALID,0.0,VALID,87.693,VALID,48.374,VALID,20.77,VALID,80.0,VALID,2.929,
2019-02-14, 07:11:06,VALID,919.325,VALID,0.0,VALID,87.625,VALID,60.683,VALID,20.803,VALID,79.0,VALID,2.454,
2019-02-14, 07:12:06,VALID,919.322,VALID,0.0,VALID,87.661,VALID,72.239,VALID,20.824,VALID,87.0,VALID,2.329,
2019-02-14, 07:13:06,VALID,919.324,VALID,0.0,VALID,87.71,VALID,73.894,VALID,20.831,VALID,94.0,VALID,2.598,
2019-02-14, 07:14:06,VALID,919.317,VALID,0.0,VALID,87.591,VALID,83.232,VALID,20.87,VALID,96.0,VALID,2.561,
2019-02-14, 07:15:06,VALID,919.309,VALID,0.0,VALID,87.532,VALID,87.407,VALID,20.929,VALID,89.0,VALID,2.702,
2019-02-14, 07:16:06,VALID,919.311,VALID,0.0,VALID,87.212,VALID,91.519,VALID,21.009,VALID,88.0,VALID,2.368,
2019-02-14, 07:17:06,VALID,919.292,VALID,0.0,VALID,86.973,VALID,96.756,VALID,21.08,VALID,89.0,VALID,2.069,
2019-02-14, 07:18:06,VALID,919.303,VALID,0.0,VALID,86.591,VALID,104.383,VALID,21.158,VALID,85.0,VALID,2.325,
2019-02-14, 07:19:06,VALID,919.306,VALID,0.0,VALID,86.522,VALID,110.529,VALID,21.254,VALID,84.0,VALID,1.668,
2019-02-14, 07:20:06,VALID,919.312,VALID,0.0,VALID,86.335,VALID,115.44,VALID,21.325,VALID,80.0,VALID,1.763,
2019-02-14, 07:21:06,VALID,919.337,VALID,0.0,VALID,85.844,VALID,119.461,VALID,21.379,VALID,79.0,VALID,2.499,
2019-02-14, 07:22:06,VALID,919.348,VALID,0.0,VALID,85.429,VALID,121.157,VALID,21.417,VALID,77.0,VALID,2.028,
2019-02-14, 07:23:06,VALID,919.349,VALID,0.0,VALID,85.546,VALID,122.727,VALID,21.461,VALID,77.0,VALID,1.757,
2019-02-14, 07:24:06,VALID,919.341,VALID,0.0,VALID,85.468,VALID,123.09,VALID,21.508,VALID,76.0,VALID,1.948,
2019-02-14, 07:25:06,VALID,919.333,VALID,0.0,VALID,85.202,VALID,124.636,VALID,21.557,VALID,80.0,VALID,2.469,
2019-02-14, 07:26:06,VALID,919.311,VALID,0.0,VALID,84.984,VALID,126.758,VALID,21.57,VALID,81.0,VALID,2.353,
2019-02-14, 07:27:06,VALID,919.299,VALID,0.0,VALID,84.58,VALID,129.655,VALID,21.597,VALID,80.0,VALID,2.6,
2019-02-14, 07:28:06,VALID,919.299,VALID,0.0,VALID,84.587,VALID,132.486,VALID,21.62,VALID,75.0,VALID,2.501,
2019-02-14, 07:29:06,VALID,919.298,VALID,0.0,VALID,84.504,VALID,136.521,VALID,21.573,VALID,71.0,VALID,2.925,
2019-02-14, 07:30:06,VALID,919.321,VALID,0.0,VALID,85.017,VALID,139.487,VALID,21.54,VALID,74.0,VALID,2.807,
2019-02-14, 07:31:06,VALID,919.33,VALID,0.0,VALID,85.668,VALID,142.302,VALID,21.551,VALID,76.0,VALID,2.725,
2019-02-14, 07:32:06,VALID,919.31,VALID,0.0,VALID,85.163,VALID,144.976,VALID,21.574,VALID,69.0,VALID,2.596,
2019-02-14, 07:33:06,VALID,919.323,VALID,0.0,VALID,85.427,VALID,149.087,VALID,21.537,VALID,73.0,VALID,1.941,
2019-02-14, 07:34:06,VALID,919.323,VALID,0.0,VALID,85.602,VALID,153.436,VALID,21.624,VALID,82.0,VALID,1.949,
2019-02-14, 07:35:06,VALID,919.312,VALID,0.0,VALID,84.378,VALID,158.86,VALID,21.791,VALID,78.0,VALID,2.054,
2019-02-14, 07:36:06,VALID,919.324,VALID,0.0,VALID,83.684,VALID,163.822,VALID,21.911,VALID,81.0,VALID,1.968,
2019-02-14, 07:37:06,VALID,919.336,VALID,0.0,VALID,83.912,VALID,166.182,VALID,22.01,VALID,71.0,VALID,1.986,
2019-02-14, 07:38:06,VALID,919.313,VALID,0.0,VALID,83.354,VALID,169.864,VALID,22.015,VALID,77.0,VALID,2.415,
2019-02-14, 07:39:06,VALID,919.317,VALID,0.0,VALID,83.355,VALID,172.711,VALID,22.028,VALID,81.0,VALID,2.011,
2019-02-14, 07:40:06,VALID,919.352,VALID,0.0,VALID,83.597,VALID,175.693,VALID,22.156,VALID,81.0,VALID,2.37,
2019-02-14, 07:41:06,VALID,919.346,VALID,0.0,VALID,82.972,VALID,179.758,VALID,22.27,VALID,76.0,VALID,1.534,
2019-02-14, 07:42:06,VALID,919.368,VALID,0.0,VALID,82.834,VALID,183.631,VALID,22.35,VALID,79.0,VALID,2.207,
2019-02-14, 07:43:06,VALID,919.369,VALID,0.0,VALID,82.503,VALID,186.589,VALID,22.287,VALID,76.0,VALID,2.466,
2019-02-14, 07:44:06,VALID,919.375,VALID,0.0,VALID,83.233,VALID,187.615,VALID,22.234,VALID,85.0,VALID,2.257,
2019-02-14, 07:45:06,VALID,919.366,VALID,0.0,VALID,82.991,VALID,185.386,VALID,22.267,VALID,83.0,VALID,2.41,
2019-02-14, 07:46:06,VALID,919.368,VALID,0.0,VALID,82.43,VALID,179.88,VALID,22.317,VALID,83.0,VALID,1.991,
2019-02-14, 07:47:06,VALID,919.338,VALID,0.0,VALID,82.963,VALID,181.293,VALID,22.437,VALID,84.0,VALID,1.765,
2019-02-14, 07:48:06,VALID,919.34,VALID,0.0,VALID,82.415,VALID,187.82,VALID,22.481,VALID,83.0,VALID,1.829,
2019-02-14, 07:49:06,VALID,919.331,VALID,0.0,VALID,82.184,VALID,199.673,VALID,22.53,VALID,84.0,VALID,1.652,
2019-02-14, 07:50:06,VALID,919.34,VALID,0.0,VALID,82.207,VALID,210.055,VALID,22.593,VALID,92.0,VALID,2.011,
2019-02-14, 07:51:06,VALID,919.347,VALID,0.0,VALID,81.48,VALID,215.778,VALID,22.571,VALID,96.0,VALID,2.768,
2019-02-14, 07:52:06,VALID,919.351,VALID,0.0,VALID,81.99,VALID,219.273,VALID,22.487,VALID,84.0,VALID,2.15,
2019-02-14, 07:53:06,VALID,919.334,VALID,0.0,VALID,82.572,VALID,223.589,VALID,22.499,VALID,85.0,VALID,1.877,
2019-02-14, 07:54:06,VALID,919.31,VALID,0.0,VALID,81.867,VALID,228.135,VALID,22.565,VALID,91.0,VALID,2.158,
2019-02-14, 07:55:06,VALID,919.3,VALID,0.0,VALID,81.852,VALID,230.354,VALID,22.66,VALID,85.0,VALID,1.754,
2019-02-14, 07:56:06,VALID,919.297,VALID,0.0,VALID,81.601,VALID,233.039,VALID,22.773,VALID,89.0,VALID,2.147,
2019-02-14, 07:57:06,VALID,919.308,VALID,0.0,VALID,80.301,VALID,234.826,VALID,22.797,VALID,90.0,VALID,2.781,
2019-02-14, 07:58:06,VALID,919.327,VALID,0.0,VALID,79.936,VALID,239.965,VALID,22.803,VALID,85.0,VALID,2.596,
2019-02-14, 07:59:06,VALID,919.316,VALID,0.0,VALID,80.571,VALID,247.147,VALID,22.894,VALID,84.0,VALID,1.923,
2019-02-14, 08:00:06,VALID,919.333,VALID,0.0,VALID,80.932,VALID,253.211,VALID,23.022,VALID,73.0,VALID,2.074,
2019-02-14, 08:01:06,VALID,919.345,VALID,0.0,VALID,79.747,VALID,256.925,VALID,23.073,VALID,88.0,VALID,2.884,
2019-02-14, 08:02:06,VALID,919.357,VALID,0.0,VALID,78.918,VALID,257.402,VALID,23.03,VALID,78.0,VALID,2.472,
2019-02-14, 08:03:06,VALID,919.353,VALID,0.0,VALID,79.571,VALID,259.504,VALID,23.04,VALID,73.0,VALID,2.094,
2019-02-14, 08:04:06,VALID,919.375,VALID,0.0,VALID,80.31,VALID,263.185,VALID,23.131,VALID,79.0,VALID,1.869,
2019-02-14, 08:05:06,VALID,919.379,VALID,0.0,VALID,79.081,VALID,268.149,VALID,23.205,VALID,67.0,VALID,2.559,
2019-02-14, 08:06:06,VALID,919.389,VALID,0.0,VALID,78.951,VALID,272.659,VALID,23.101,VALID,76.0,VALID,2.587,
2019-02-14, 08:07:06,VALID,919.403,VALID,0.0,VALID,79.496,VALID,278.628,VALID,23.045,VALID,82.0,VALID,2.249,
2019-02-14, 08:08:06,VALID,919.407,VALID,0.0,VALID,80.134,VALID,282.504,VALID,23.061,VALID,78.0,VALID,2.209,
2019-02-14, 08:09:06,VALID,919.442,VALID,0.0,VALID,79.411,VALID,285.94,VALID,23.032,VALID,80.0,VALID,2.999,
2019-02-14, 08:10:06,VALID,919.455,VALID,0.0,VALID,79.624,VALID,292.085,VALID,22.959,VALID,81.0,VALID,2.866,
2019-02-14, 08:11:06,VALID,919.479,VALID,0.0,VALID,79.333,VALID,296.697,VALID,22.979,VALID,74.0,VALID,3.111,
2019-02-14, 08:12:06,VALID,919.521,VALID,0.0,VALID,79.976,VALID,301.35,VALID,22.945,VALID,84.0,VALID,2.316,
2019-02-14, 08:13:06,VALID,919.541,VALID,0.0,VALID,80.245,VALID,306.693,VALID,23.11,VALID,64.0,VALID,2.188,
2019-02-14, 08:14:06,VALID,919.554,VALID,0.0,VALID,78.566,VALID,312.585,VALID,23.186,VALID,59.0,VALID,2.399,
2019-02-14, 08:15:06,VALID,919.582,VALID,0.0,VALID,78.736,VALID,319.378,VALID,23.125,VALID,66.0,VALID,1.832,
2019-02-14, 08:16:06,VALID,919.567,VALID,0.0,VALID,79.843,VALID,322.376,VALID,23.137,VALID,55.0,VALID,1.701,
2019-02-14, 08:17:06,VALID,919.593,VALID,0.0,VALID,79.874,VALID,322.876,VALID,23.354,VALID,61.0,VALID,0.955,
2019-02-14, 08:18:06,VALID,919.606,VALID,0.0,VALID,80.022,VALID,324.841,VALID,23.665,VALID,58.0,VALID,1.901,
2019-02-14, 08:19:06,VALID,919.61,VALID,0.0,VALID,76.598,VALID,334.447,VALID,23.632,VALID,74.0,VALID,1.898,
2019-02-14, 08:20:06,VALID,919.599,VALID,0.0,VALID,77.283,VALID,340.91,VALID,23.498,VALID,76.0,VALID,1.605,
2019-02-14, 08:21:06,VALID,919.582,VALID,0.0,VALID,77.866,VALID,345.091,VALID,23.6,VALID,81.0,VALID,1.777,
2019-02-14, 08:22:06,VALID,919.589,VALID,0.0,VALID,77.405,VALID,349.361,VALID,23.638,VALID,68.0,VALID,2.382,
2019-02-14, 08:23:06,VALID,919.577,VALID,0.0,VALID,78.736,VALID,356.175,VALID,23.56,VALID,93.0,VALID,1.691,
2019-02-14, 08:24:06,VALID,919.577,VALID,0.0,VALID,78.2,VALID,364.001,VALID,23.706,VALID,69.0,VALID,1.543,
2019-02-14, 08:25:06,VALID,919.584,VALID,0.0,VALID,77.24,VALID,368.717,VALID,23.784,VALID,75.0,VALID,2.824,
2019-02-14, 08:26:06,VALID,919.598,VALID,0.0,VALID,77.107,VALID,369.739,VALID,23.69,VALID,70.0,VALID,2.493,
2019-02-14, 08:27:06,VALID,919.616,VALID,0.0,VALID,77.787,VALID,378.918,VALID,23.518,VALID,70.0,VALID,2.53,
2019-02-14, 08:28:06,VALID,919.614,VALID,0.0,VALID,78.396,VALID,389.37,VALID,23.469,VALID,82.0,VALID,2.546,
2019-02-14, 08:29:06,VALID,919.609,VALID,0.0,VALID,78.351,VALID,401.114,VALID,23.626,VALID,66.0,VALID,1.635,
2019-02-14, 08:30:06,VALID,919.627,VALID,0.0,VALID,78.067,VALID,417.906,VALID,23.733,VALID,77.0,VALID,2.798,
2019-02-14, 08:31:06,VALID,919.639,VALID,0.0,VALID,77.605,VALID,436.781,VALID,23.773,VALID,82.0,VALID,3.09,
2019-02-14, 08:32:06,VALID,919.625,VALID,0.0,VALID,77.18,VALID,447.19,VALID,23.693,VALID,77.0,VALID,3.002,
2019-02-14, 08:33:06,VALID,919.631,VALID,0.0,VALID,76.753,VALID,455.513,VALID,23.682,VALID,81.0,VALID,2.837,
2019-02-14, 08:34:06,VALID,919.632,VALID,0.0,VALID,77.156,VALID,454.772,VALID,23.715,VALID,60.0,VALID,2.295,
2019-02-14, 08:35:06,VALID,919.641,VALID,0.0,VALID,78.787,VALID,463.796,VALID,23.869,VALID,69.0,VALID,1.608,
2019-02-14, 08:36:06,VALID,919.667,VALID,0.0,VALID,78.61,VALID,476.387,VALID,24.255,VALID,78.0,VALID,2.415,
2019-02-14, 08:37:06,VALID,919.684,VALID,0.0,VALID,75.608,VALID,482.602,VALID,24.285,VALID,72.0,VALID,2.943,
2019-02-14, 08:38:06,VALID,919.659,VALID,0.0,VALID,75.73,VALID,476.004,VALID,24.079,VALID,63.0,VALID,2.161,
2019-02-14, 08:39:06,VALID,919.664,VALID,0.0,VALID,77.291,VALID,470.536,VALID,24.176,VALID,54.0,VALID,2.168,
2019-02-14, 08:40:06,VALID,919.658,VALID,0.0,VALID,76.135,VALID,457.235,VALID,24.178,VALID,70.0,VALID,2.492,
2019-02-14, 08:41:06,VALID,919.647,VALID,0.0,VALID,76.433,VALID,455.565,VALID,24.142,VALID,61.0,VALID,2.018,
2019-02-14, 08:42:06,VALID,919.641,VALID,0.0,VALID,76.769,VALID,450.753,VALID,24.246,VALID,79.0,VALID,2.107,
2019-02-14, 08:43:06,VALID,919.636,VALID,0.0,VALID,76.506,VALID,454.28,VALID,24.293,VALID,69.0,VALID,2.78,
2019-02-14, 08:44:06,VALID,919.624,VALID,0.0,VALID,76.973,VALID,457.105,VALID,24.288,VALID,48.0,VALID,2.528,
2019-02-14, 08:45:06,VALID,919.618,VALID,0.0,VALID,75.508,VALID,456.805,VALID,24.414,VALID,72.0,VALID,1.744,
2019-02-14, 08:46:06,VALID,919.608,VALID,0.0,VALID,75.935,VALID,458.11,VALID,24.564,VALID,72.0,VALID,1.872,
2019-02-14, 08:47:06,VALID,919.601,VALID,0.0,VALID,76.116,VALID,455.234,VALID,24.709,VALID,72.0,VALID,1.928,
2019-02-14, 08:48:06,VALID,919.577,VALID,0.0,VALID,76.171,VALID,456.943,VALID,24.992,VALID,44.0,VALID,1.523,
2019-02-14, 08:49:06,VALID,919.587,VALID,0.0,VALID,74.127,VALID,460.702,VALID,25.168,VALID,70.0,VALID,1.911,
2019-02-14, 08:50:06,VALID,919.626,VALID,0.0,VALID,71.677,VALID,465.826,VALID,25.095,VALID,90.0,VALID,2.354,
2019-02-14, 08:51:06,VALID,919.633,VALID,0.0,VALID,73.496,VALID,469.994,VALID,24.859,VALID,75.0,VALID,1.894,
2019-02-14, 08:52:06,VALID,919.66,VALID,0.0,VALID,73.947,VALID,475.494,VALID,24.779,VALID,69.0,VALID,2.665,
2019-02-14, 08:53:06,VALID,919.677,VALID,0.0,VALID,72.382,VALID,482.784,VALID,24.645,VALID,75.0,VALID,1.809,
2019-02-14, 08:54:06,VALID,919.695,VALID,0.0,VALID,74.174,VALID,489.528,VALID,24.846,VALID,87.0,VALID,1.73,
2019-02-14, 08:55:06,VALID,919.735,VALID,0.0,VALID,73.085,VALID,503.942,VALID,25.053,VALID,94.0,VALID,2.875,
2019-02-14, 08:56:06,VALID,919.771,VALID,0.0,VALID,71.665,VALID,521.613,VALID,24.929,VALID,86.0,VALID,2.816,
2019-02-14, 08:57:06,VALID,919.787,VALID,0.0,VALID,72.609,VALID,540.041,VALID,24.859,VALID,58.0,VALID,2.521,
2019-02-14, 08:58:06,VALID,919.831,VALID,0.0,VALID,73.346,VALID,569.44,VALID,24.797,VALID,77.0,VALID,2.862,
2019-02-14, 08:59:06,VALID,919.86,VALID,0.0,VALID,73.101,VALID,601.796,VALID,24.851,VALID,80.0,VALID,2.804,
2019-02-14, 09:00:06,VALID,919.876,VALID,0.0,VALID,71.307,VALID,593.81,VALID,24.957,VALID,92.0,VALID,1.913,
2019-02-14, 09:01:06,VALID,919.889,VALID,0.0,VALID,72.03,VALID,539.486,VALID,25.177,VALID,62.0,VALID,1.365,
2019-02-14, 09:02:06,VALID,919.904,VALID,0.0,VALID,71.462,VALID,502.997,VALID,25.301,VALID,44.0,VALID,2.868,
2019-02-14, 09:03:06,VALID,919.923,VALID,0.0,VALID,71.714,VALID,596.434,VALID,25.243,VALID,77.0,VALID,1.961,
2019-02-14, 09:04:06,VALID,919.942,VALID,0.0,VALID,71.878,VALID,605.975,VALID,25.334,VALID,62.0,VALID,2.497,
2019-02-14, 09:05:06,VALID,919.941,VALID,0.0,VALID,71.199,VALID,611.71,VALID,25.194,VALID,55.0,VALID,2.128,
2019-02-14, 09:06:06,VALID,919.947,VALID,0.0,VALID,70.111,VALID,581.421,VALID,25.011,VALID,70.0,VALID,1.6,
2019-02-14, 09:07:06,VALID,919.953,VALID,0.0,VALID,71.521,VALID,596.261,VALID,25.02,VALID,60.0,VALID,1.233,
2019-02-14, 09:08:06,VALID,919.957,VALID,0.0,VALID,72.04,VALID,600.9,VALID,25.213,VALID,64.0,VALID,0.823,
2019-02-14, 09:09:06,VALID,919.968,VALID,0.0,VALID,71.659,VALID,514.109,VALID,25.432,VALID,41.0,VALID,1.596,
2019-02-14, 09:10:06,VALID,919.966,VALID,0.0,VALID,71.193,VALID,283.934,VALID,25.445,VALID,32.0,VALID,1.54,
2019-02-14, 09:11:06,VALID,919.973,VALID,0.0,VALID,71.38,VALID,269.679,VALID,25.613,VALID,28.0,VALID,0.929,
2019-02-14, 09:12:06,VALID,919.994,VALID,0.0,VALID,70.05,VALID,260.904,VALID,25.679,VALID,38.0,VALID,0.946,
2019-02-14, 09:13:06,VALID,920.021,VALID,0.0,VALID,69.911,VALID,269.398,VALID,25.589,VALID,59.0,VALID,0.88,
2019-02-14, 09:14:06,VALID,920.03,VALID,0.0,VALID,69.894,VALID,285.993,VALID,25.449,VALID,89.0,VALID,1.359,
2019-02-14, 09:15:06,VALID,920.042,VALID,0.0,VALID,70.888,VALID,338.357,VALID,25.358,VALID,62.0,VALID,1.366,
2019-02-14, 09:16:06,VALID,920.066,VALID,0.0,VALID,72.672,VALID,509.152,VALID,25.214,VALID,48.0,VALID,1.318,
2019-02-14, 09:17:06,VALID,920.047,VALID,0.0,VALID,72.291,VALID,694.197,VALID,25.215,VALID,37.0,VALID,2.31,
2019-02-14, 09:18:06,VALID,920.065,VALID,0.0,VALID,72.485,VALID,686.131,VALID,25.229,VALID,36.0,VALID,2.219,
2019-02-14, 09:19:06,VALID,920.081,VALID,0.0,VALID,72.097,VALID,597.343,VALID,25.345,VALID,36.0,VALID,1.574,
2019-02-14, 09:20:06,VALID,920.105,VALID,0.0,VALID,72.724,VALID,617.052,VALID,25.545,VALID,65.0,VALID,1.256,
2019-02-14, 09:21:06,VALID,920.102,VALID,0.0,VALID,71.328,VALID,629.005,VALID,25.914,VALID,43.0,VALID,1.202,
2019-02-14, 09:22:06,VALID,920.085,VALID,0.0,VALID,68.561,VALID,543.74,VALID,25.75,VALID,36.0,VALID,2.389,
2019-02-14, 09:23:06,VALID,920.084,VALID,0.0,VALID,69.504,VALID,439.047,VALID,25.276,VALID,46.0,VALID,1.411,
2019-02-14, 09:24:06,VALID,920.107,VALID,0.0,VALID,72.21,VALID,421.433,VALID,25.172,VALID,53.0,VALID,1.272,
2019-02-14, 09:25:06,VALID,920.111,VALID,0.0,VALID,73.932,VALID,318.631,VALID,25.303,VALID,47.0,VALID,1.501,
2019-02-14, 09:26:06,VALID,920.121,VALID,0.0,VALID,71.331,VALID,306.761,VALID,25.3,VALID,85.0,VALID,1.79,
2019-02-14, 09:27:06,VALID,920.13,VALID,0.0,VALID,71.167,VALID,256.386,VALID,25.223,VALID,110.0,VALID,0.628,
2019-02-14, 09:28:06,VALID,920.163,VALID,0.0,VALID,72.161,VALID,226.868,VALID,25.296,VALID,82.0,VALID,1.694,
2019-02-14, 09:29:06,VALID,920.179,VALID,0.0,VALID,72.93,VALID,228.996,VALID,25.155,VALID,62.0,VALID,1.926,
2019-02-14, 09:30:06,VALID,920.165,VALID,0.0,VALID,72.257,VALID,248.351,VALID,24.981,VALID,41.0,VALID,1.738,
2019-02-14, 09:31:06,VALID,920.186,VALID,0.0,VALID,74.076,VALID,284.383,VALID,24.877,VALID,45.0,VALID,2.191,
2019-02-14, 09:32:06,VALID,920.197,VALID,0.0,VALID,73.876,VALID,292.588,VALID,24.814,VALID,49.0,VALID,1.102,
2019-02-14, 09:33:06,VALID,920.187,VALID,0.0,VALID,73.699,VALID,288.113,VALID,24.75,VALID,60.0,VALID,2.802,
2019-02-14, 09:34:06,VALID,920.188,VALID,0.0,VALID,74.127,VALID,296.567,VALID,24.543,VALID,56.0,VALID,3.118,
2019-02-14, 09:35:06,VALID,920.188,VALID,0.0,VALID,74.589,VALID,323.974,VALID,24.421,VALID,63.0,VALID,2.039,
2019-02-14, 09:36:06,VALID,920.172,VALID,0.0,VALID,75.783,VALID,499.125,VALID,24.465,VALID,65.0,VALID,1.714,
2019-02-14, 09:37:06,VALID,920.179,VALID,0.0,VALID,75.135,VALID,550.935,VALID,24.596,VALID,61.0,VALID,2.873,
2019-02-14, 09:38:06,VALID,920.163,VALID,0.0,VALID,73.897,VALID,632.859,VALID,24.677,VALID,81.0,VALID,2.664,
2019-02-14, 09:39:06,VALID,920.156,VALID,0.0,VALID,74.01,VALID,422.842,VALID,24.753,VALID,92.0,VALID,2.354,
2019-02-14, 09:40:06,VALID,920.146,VALID,0.0,VALID,73.468,VALID,536.374,VALID,25.002,VALID,86.0,VALID,2.039,
2019-02-14, 09:41:06,VALID,920.157,VALID,0.0,VALID,74.305,VALID,560.099,VALID,25.188,VALID,81.0,VALID,1.91,
2019-02-14, 09:42:06,VALID,920.173,VALID,0.0,VALID,72.441,VALID,640.61,VALID,25.363,VALID,97.0,VALID,2.44,
2019-02-14, 09:43:06,VALID,920.163,VALID,0.0,VALID,71.71,VALID,479.69,VALID,25.267,VALID,71.0,VALID,2.56,
2019-02-14, 09:44:06,VALID,920.17,VALID,0.0,VALID,72.944,VALID,508.962,VALID,25.173,VALID,83.0,VALID,1.928,
2019-02-14, 09:45:06,VALID,920.173,VALID,0.0,VALID,71.527,VALID,609.843,VALID,25.179,VALID,75.0,VALID,2.462,
2019-02-14, 09:46:06,VALID,920.162,VALID,0.0,VALID,72.939,VALID,599.191,VALID,25.08,VALID,53.0,VALID,2.264,
2019-02-14, 09:47:06,VALID,920.197,VALID,0.0,VALID,73.169,VALID,571.163,VALID,25.204,VALID,59.0,VALID,1.479,
2019-02-14, 09:48:06,VALID,920.192,VALID,0.0,VALID,71.966,VALID,567.594,VALID,25.389,VALID,99.0,VALID,1.45,
2019-02-14, 09:49:06,VALID,920.201,VALID,0.0,VALID,70.873,VALID,628.425,VALID,25.734,VALID,104.0,VALID,1.115,
2019-02-14, 09:50:06,VALID,920.206,VALID,0.0,VALID,71.241,VALID,681.482,VALID,25.987,VALID,81.0,VALID,1.929,
2019-02-14, 09:51:06,VALID,920.209,VALID,0.0,VALID,70.728,VALID,629.226,VALID,26.042,VALID,67.0,VALID,1.982,
2019-02-14, 09:52:06,VALID,920.225,VALID,0.0,VALID,71.474,VALID,588.047,VALID,26.132,VALID,80.0,VALID,1.653,
2019-02-14, 09:53:06,VALID,920.228,VALID,0.0,VALID,70.824,VALID,557.424,VALID,26.234,VALID,88.0,VALID,2.55,
2019-02-14, 09:54:06,VALID,920.276,VALID,0.0,VALID,68.804,VALID,431.142,VALID,26.051,VALID,75.0,VALID,3.225,
2019-02-14, 09:55:06,VALID,920.291,VALID,0.0,VALID,69.185,VALID,290.823,VALID,25.382,VALID,72.0,VALID,3.485,
2019-02-14, 09:56:06,VALID,920.319,VALID,0.0,VALID,71.255,VALID,241.006,VALID,24.931,VALID,81.0,VALID,2.731,
2019-02-14, 09:57:06,VALID,920.352,VALID,0.0,VALID,71.532,VALID,214.628,VALID,24.738,VALID,85.0,VALID,2.889,
2019-02-14, 09:58:06,VALID,920.368,VALID,0.0,VALID,73.489,VALID,198.758,VALID,24.591,VALID,71.0,VALID,2.612,
2019-02-14, 09:59:06,VALID,920.354,VALID,0.0,VALID,73.517,VALID,186.699,VALID,24.485,VALID,66.0,VALID,3.188,
2019-02-14, 10:00:06,VALID,920.325,VALID,0.0,VALID,74.912,VALID,179.453,VALID,24.32,VALID,55.0,VALID,2.74,
2019-02-14, 10:01:06,VALID,920.331,VALID,0.0,VALID,75.326,VALID,175.032,VALID,24.185,VALID,73.0,VALID,2.846,
2019-02-14, 10:02:06,VALID,920.327,VALID,0.0,VALID,75.36,VALID,168.019,VALID,24.099,VALID,85.0,VALID,2.398,
2019-02-14, 10:03:06,VALID,920.299,VALID,0.0,VALID,76.534,VALID,162.791,VALID,24.068,VALID,63.0,VALID,2.508,
2019-02-14, 10:04:06,VALID,920.28,VALID,0.0,VALID,77.335,VALID,165.299,VALID,24.087,VALID,62.0,VALID,2.483,
2019-02-14, 10:05:06,VALID,920.268,VALID,0.0,VALID,77.703,VALID,182.985,VALID,24.035,VALID,56.0,VALID,2.564,
2019-02-14, 10:06:06,VALID,920.25,VALID,0.0,VALID,77.666,VALID,213.874,VALID,24.016,VALID,57.0,VALID,2.061,
2019-02-14, 10:07:06,VALID,920.24,VALID,0.0,VALID,76.919,VALID,253.568,VALID,23.935,VALID,51.0,VALID,2.53,
2019-02-14, 10:08:06,VALID,920.237,VALID,0.0,VALID,76.647,VALID,267.177,VALID,23.87,VALID,61.0,VALID,1.93,
2019-02-14, 10:09:06,VALID,920.242,VALID,0.0,VALID,77.545,VALID,264.42,VALID,23.9,VALID,69.0,VALID,2.071,
2019-02-14, 10:10:06,VALID,920.247,VALID,0.0,VALID,77.126,VALID,229.007,VALID,23.986,VALID,66.0,VALID,3.221,
2019-02-14, 10:11:06,VALID,920.26,VALID,0.0,VALID,76.089,VALID,209.813,VALID,23.898,VALID,72.0,VALID,3.042,
2019-02-14, 10:12:06,VALID,920.263,VALID,0.0,VALID,77.32,VALID,190.623,VALID,23.778,VALID,57.0,VALID,1.991,
2019-02-14, 10:13:06,VALID,920.279,VALID,0.0,VALID,77.755,VALID,175.965,VALID,23.754,VALID,75.0,VALID,2.215,
2019-02-14, 10:14:06,VALID,920.291,VALID,0.0,VALID,76.687,VALID,164.855,VALID,23.683,VALID,78.0,VALID,2.367,
2019-02-14, 10:15:06,VALID,920.292,VALID,0.0,VALID,77.532,VALID,156.906,VALID,23.627,VALID,83.0,VALID,2.545,
2019-02-14, 10:16:06,VALID,920.275,VALID,0.0,VALID,78.0,VALID,152.5,VALID,23.602,VALID,70.0,VALID,2.198,
2019-02-14, 10:17:06,VALID,920.25,VALID,0.0,VALID,78.035,VALID,150.831,VALID,23.645,VALID,65.0,VALID,2.233,
2019-02-14, 10:18:06,VALID,920.257,VALID,0.0,VALID,77.574,VALID,154.159,VALID,23.645,VALID,66.0,VALID,1.638,
2019-02-14, 10:19:06,VALID,920.25,VALID,0.0,VALID,78.558,VALID,160.41,VALID,23.653,VALID,63.0,VALID,1.778,
2019-02-14, 10:20:06,VALID,920.228,VALID,0.0,VALID,78.184,VALID,163.491,VALID,23.694,VALID,46.0,VALID,1.729,
2019-02-14, 10:21:06,VALID,920.247,VALID,0.0,VALID,78.707,VALID,163.804,VALID,23.722,VALID,67.0,VALID,1.716,
2019-02-14, 10:22:06,VALID,920.238,VALID,0.0,VALID,77.181,VALID,163.871,VALID,23.728,VALID,76.0,VALID,1.083,
2019-02-14, 10:23:06,VALID,920.232,VALID,0.0,VALID,78.029,VALID,162.618,VALID,23.724,VALID,56.0,VALID,1.669,
2019-02-14, 10:24:06,VALID,920.201,VALID,0.0,VALID,78.36,VALID,163.091,VALID,23.65,VALID,53.0,VALID,2.116,
2019-02-14, 10:25:06,VALID,920.201,VALID,0.0,VALID,78.158,VALID,167.758,VALID,23.552,VALID,60.0,VALID,2.384,
2019-02-14, 10:26:06,VALID,920.188,VALID,0.0,VALID,78.866,VALID,174.562,VALID,23.493,VALID,58.0,VALID,1.787,
2019-02-14, 10:27:06,VALID,920.174,VALID,0.0,VALID,78.411,VALID,182.49,VALID,23.475,VALID,79.0,VALID,2.009,
2019-02-14, 10:28:06,VALID,920.145,VALID,0.0,VALID,78.094,VALID,192.495,VALID,23.499,VALID,73.0,VALID,1.491,
2019-02-14, 10:29:06,VALID,920.129,VALID,0.0,VALID,78.861,VALID,204.088,VALID,23.532,VALID,69.0,VALID,1.752,
2019-02-14, 10:30:06,VALID,920.126,VALID,0.0,VALID,78.242,VALID,215.668,VALID,23.534,VALID,67.0,VALID,1.829,
2019-02-14, 10:31:06,VALID,920.117,VALID,0.0,VALID,80.044,VALID,224.244,VALID,23.627,VALID,68.0,VALID,1.745,
2019-02-14, 10:32:06,VALID,920.099,VALID,0.0,VALID,78.153,VALID,221.599,VALID,23.702,VALID,73.0,VALID,2.443,
2019-02-14, 10:33:06,VALID,920.112,VALID,0.0,VALID,77.965,VALID,211.681,VALID,23.623,VALID,72.0,VALID,2.618,
2019-02-14, 10:34:06,VALID,920.085,VALID,0.0,VALID,78.534,VALID,203.177,VALID,23.554,VALID,64.0,VALID,2.271,
2019-02-14, 10:35:06,VALID,920.085,VALID,0.0,VALID,79.81,VALID,198.023,VALID,23.583,VALID,74.0,VALID,1.862,
2019-02-14, 10:36:06,VALID,920.082,VALID,0.0,VALID,79.557,VALID,194.984,VALID,23.715,VALID,73.0,VALID,1.737,
2019-02-14, 10:37:06,VALID,920.081,VALID,0.0,VALID,78.38,VALID,191.41,VALID,23.788,VALID,58.0,VALID,1.958,